Time,TemperatureF,DewpointF,PressureIn,WindDirection,WindDirectionDegrees,WindSpeedMPH,WindSpeedGustMPH,Humidity,HourlyPrecipIn,Conditions,Clouds,dailyrainin,SoftwareType,DateUTC
2013-02-13 00:10:00,33.4,31.6,29.91,North,351,0.0,2.0,93,0.02,,,0.00,VWS V12.07,2013-02-13 05:10:00,
2013-02-13 00:29:00,33.4,31.6,29.88,North,351,0.0,0.0,93,0.02,,,0.00,VWS V12.07,2013-02-13 05:29:00,
2013-02-13 00:40:00,33.7,32.2,29.88,North,351,0.0,2.0,94,0.02,,,0.01,VWS V12.07,2013-02-13 05:40:00,
2013-02-13 00:59:00,33.7,32.2,29.84,North,351,0.0,2.0,94,0.03,,,0.02,VWS V12.07,2013-02-13 05:59:00,
2013-02-13 01:10:00,33.7,32.4,29.85,North,351,0.0,1.0,95,0.02,,,0.02,VWS V12.07,2013-02-13 06:10:00,
2013-02-13 01:29:00,33.7,32.4,29.83,North,351,0.0,0.0,95,0.02,,,0.02,VWS V12.07,2013-02-13 06:29:00,
2013-02-13 01:40:00,33.8,32.5,29.84,North,351,0.0,0.0,95,0.02,,,0.03,VWS V12.07,2013-02-13 06:40:00,
2013-02-13 01:59:00,33.8,32.5,29.82,North,351,0.0,1.0,95,0.02,,,0.03,VWS V12.07,2013-02-13 06:59:00,
2013-02-13 02:10:00,33.8,32.5,29.81,North,351,0.0,0.0,95,0.01,,,0.03,VWS V12.07,2013-02-13 07:10:00,
2013-02-13 02:29:00,33.8,32.5,29.80,North,351,0.0,0.0,95,0.01,,,0.03,VWS V12.07,2013-02-13 07:29:00,
2013-02-13 02:40:00,34.0,32.7,29.80,North,351,0.0,0.0,95,0.03,,,0.05,VWS V12.07,2013-02-13 07:40:00,
2013-02-13 02:59:00,34.0,32.7,29.80,North,351,0.0,0.0,95,0.04,,,0.07,VWS V12.07,2013-02-13 07:59:00,
2013-02-13 03:10:00,34.1,32.8,29.78,North,351,0.0,0.0,95,0.09,,,0.12,VWS V12.07,2013-02-13 08:10:00,
2013-02-13 03:29:00,34.0,32.7,29.78,North,351,0.0,0.0,95,0.10,,,0.13,VWS V12.07,2013-02-13 08:29:00,
2013-02-13 03:40:00,34.1,32.8,29.78,North,351,0.0,0.0,95,0.12,,,0.16,VWS V12.07,2013-02-13 08:40:00,
2013-02-13 03:59:00,34.1,33.1,29.77,North,351,0.0,1.0,96,0.12,,,0.17,VWS V12.07,2013-02-13 08:59:00,
2013-02-13 04:10:00,34.0,33.0,29.77,North,351,0.0,0.0,96,0.10,,,0.19,VWS V12.07,2013-02-13 09:10:00,
2013-02-13 04:29:00,34.1,33.1,29.77,North,351,0.0,0.0,96,0.07,,,0.19,VWS V12.07,2013-02-13 09:29:00,
2013-02-13 04:40:00,34.1,33.1,29.76,North,351,0.0,0.0,96,0.04,,,0.19,VWS V12.07,2013-02-13 09:40:00,
2013-02-13 04:59:00,34.1,33.1,29.76,North,351,0.0,0.0,96,0.03,,,0.19,VWS V12.07,2013-02-13 09:59:00,
2013-02-13 05:10:00,34.1,33.1,29.76,North,351,0.0,0.0,96,0.01,,,0.19,VWS V12.07,2013-02-13 10:10:00,
2013-02-13 05:29:00,34.1,33.1,29.75,North,351,0.0,0.0,96,0.00,,,0.19,VWS V12.07,2013-02-13 10:29:00,
2013-02-13 05:40:00,34.1,33.1,29.76,North,351,0.0,0.0,96,0.01,,,0.20,VWS V12.07,2013-02-13 10:40:00,
2013-02-13 05:59:00,34.1,33.1,29.75,North,351,0.0,0.0,96,0.01,,,0.20,VWS V12.07,2013-02-13 10:59:00,
2013-02-13 06:10:00,34.3,33.3,29.74,North,351,0.0,0.0,96,0.02,,,0.21,VWS V12.07,2013-02-13 11:10:00,
2013-02-13 06:29:00,34.3,33.5,29.73,North,351,0.0,0.0,97,0.03,,,0.22,VWS V12.07,2013-02-13 11:29:00,
2013-02-13 06:40:00,34.3,33.5,29.75,North,351,0.0,0.0,97,0.04,,,0.23,VWS V12.07,2013-02-13 11:40:00,
2013-02-13 06:59:00,34.4,33.6,29.73,North,351,0.0,0.0,97,0.03,,,0.23,VWS V12.07,2013-02-13 11:59:00,
2013-02-13 07:10:00,34.4,33.6,29.73,North,351,0.0,0.0,97,0.03,,,0.23,VWS V12.07,2013-02-13 12:10:00,
2013-02-13 07:29:00,34.4,33.6,29.72,North,351,0.0,0.0,97,0.02,,,0.23,VWS V12.07,2013-02-13 12:29:00,
2013-02-13 07:40:00,34.6,33.8,29.73,North,351,0.0,2.0,97,0.01,,,0.23,VWS V12.07,2013-02-13 12:40:00,
2013-02-13 07:59:00,34.6,33.8,29.73,North,351,0.0,2.0,97,0.00,,,0.23,VWS V12.07,2013-02-13 12:59:00,
2013-02-13 08:10:00,34.7,33.9,29.73,North,351,0.0,2.0,97,0.00,,,0.23,VWS V12.07,2013-02-13 13:10:00,
2013-02-13 08:29:00,34.9,34.1,29.74,NW,321,0.0,3.0,97,0.00,,,0.23,VWS V12.07,2013-02-13 13:29:00,
2013-02-13 08:40:00,35.0,34.2,29.73,SW,221,2.0,5.0,97,0.00,,,0.23,VWS V12.07,2013-02-13 13:40:00,
2013-02-13 08:59:00,35.2,34.4,29.73,SW,214,0.0,5.0,97,0.00,,,0.23,VWS V12.07,2013-02-13 13:59:00,
2013-02-13 09:10:00,35.3,34.8,29.72,SW,214,0.0,2.0,98,0.00,,,0.23,VWS V12.07,2013-02-13 14:10:00,
2013-02-13 09:29:00,35.3,34.5,29.73,SW,214,1.0,4.0,97,0.00,,,0.23,VWS V12.07,2013-02-13 14:29:00,
2013-02-13 09:40:00,35.6,35.1,29.73,South,176,0.0,3.0,98,0.00,,,0.23,VWS V12.07,2013-02-13 14:40:00,
2013-02-13 09:59:00,35.6,35.1,29.71,South,176,0.0,2.0,98,0.00,,,0.23,VWS V12.07,2013-02-13 14:59:00,
2013-02-13 10:10:00,36.0,35.5,29.73,South,188,0.0,4.0,98,0.00,,,0.23,VWS V12.07,2013-02-13 15:10:00,
2013-02-13 10:29:00,35.9,35.1,29.73,SSW,198,1.0,7.0,97,0.00,,,0.23,VWS V12.07,2013-02-13 15:29:00,
2013-02-13 10:40:00,36.0,35.5,29.73,SSW,198,1.0,6.0,98,0.00,,,0.23,VWS V12.07,2013-02-13 15:40:00,
2013-02-13 10:59:00,36.2,35.7,29.72,SSE,159,1.0,4.0,98,0.00,,,0.23,VWS V12.07,2013-02-13 15:59:00,
2013-02-13 11:10:00,36.5,36.0,29.71,WSW,244,1.0,9.0,98,0.00,,,0.23,VWS V12.07,2013-02-13 16:10:00,
2013-02-13 11:29:00,36.3,35.5,29.71,SSW,206,0.0,5.0,97,0.00,,,0.23,VWS V12.07,2013-02-13 16:29:00,
2013-02-13 11:40:00,36.5,35.7,29.70,SW,221,4.0,5.0,97,0.00,,,0.23,VWS V12.07,2013-02-13 16:40:00,
2013-02-13 11:59:00,36.6,35.8,29.69,SSW,193,2.0,5.0,97,0.00,,,0.23,VWS V12.07,2013-02-13 16:59:00,
2013-02-13 12:10:00,36.6,35.8,29.69,SSW,205,0.0,4.0,97,0.00,,,0.23,VWS V12.07,2013-02-13 17:10:00,
2013-02-13 12:29:00,36.9,36.1,29.68,WSW,242,0.0,7.0,97,0.00,,,0.23,VWS V12.07,2013-02-13 17:29:00,
2013-02-13 12:40:00,36.6,35.8,29.67,SSE,155,0.0,7.0,97,0.00,,,0.23,VWS V12.07,2013-02-13 17:40:00,
2013-02-13 12:59:00,36.9,36.1,29.65,West,266,5.0,7.0,97,0.00,,,0.23,VWS V12.07,2013-02-13 17:59:00,
2013-02-13 13:10:00,36.9,36.1,29.65,SW,221,3.0,5.0,97,0.00,,,0.23,VWS V12.07,2013-02-13 18:10:00,
2013-02-13 13:29:00,36.9,36.1,29.64,South,180,3.0,5.0,97,0.00,,,0.23,VWS V12.07,2013-02-13 18:29:00,
2013-02-13 13:40:00,36.9,36.1,29.63,South,177,0.0,3.0,97,0.00,,,0.23,VWS V12.07,2013-02-13 18:40:00,
2013-02-13 13:59:00,36.9,36.1,29.62,SSW,194,4.0,4.0,97,0.00,,,0.23,VWS V12.07,2013-02-13 18:59:00,
2013-02-13 14:10:00,37.3,36.8,29.63,WSW,248,0.0,4.0,98,0.00,,,0.23,VWS V12.07,2013-02-13 19:10:00,
2013-02-13 14:29:00,37.6,37.1,29.62,WSW,248,3.0,4.0,98,0.00,,,0.23,VWS V12.07,2013-02-13 19:29:00,
2013-02-13 14:40:00,37.9,37.4,29.61,WSW,238,0.0,5.0,98,0.00,,,0.23,VWS V12.07,2013-02-13 19:40:00,
2013-02-13 14:59:00,38.3,37.8,29.62,WSW,238,0.0,3.0,98,0.01,,,0.24,VWS V12.07,2013-02-13 19:59:00,
2013-02-13 15:10:00,40.1,39.6,29.61,West,277,10.0,14.0,98,0.01,,,0.24,VWS V12.07,2013-02-13 20:10:00,
2013-02-13 15:29:00,41.2,39.9,29.59,West,264,12.0,17.0,95,0.01,,,0.24,VWS V12.07,2013-02-13 20:29:00,
2013-02-13 15:40:00,42.5,37.1,29.59,WNW,292,10.0,17.0,81,0.01,,,0.24,VWS V12.07,2013-02-13 20:40:00,
2013-02-13 15:59:00,42.3,36.9,29.59,WNW,300,5.0,21.0,81,0.01,,,0.24,VWS V12.07,2013-02-13 20:59:00,
2013-02-13 16:10:00,42.1,36.4,29.60,West,280,4.0,22.0,80,0.00,,,0.24,VWS V12.07,2013-02-13 21:10:00,
2013-02-13 16:29:00,41.5,36.1,29.61,West,263,16.0,18.0,81,0.00,,,0.24,VWS V12.07,2013-02-13 21:29:00,
2013-02-13 16:40:00,41.2,34.2,29.61,West,273,12.0,26.0,76,0.00,,,0.24,VWS V12.07,2013-02-13 21:40:00,
2013-02-13 16:59:00,40.9,34.6,29.63,West,266,5.0,22.0,78,0.00,,,0.24,VWS V12.07,2013-02-13 21:59:00,
2013-02-13 17:10:00,40.1,34.1,29.64,WNW,302,9.0,18.0,79,0.00,,,0.24,VWS V12.07,2013-02-13 22:10:00,
2013-02-13 17:29:00,39.8,34.1,29.64,WNW,288,5.0,20.0,80,0.00,,,0.24,VWS V12.07,2013-02-13 22:29:00,
2013-02-13 17:40:00,39.1,33.5,29.65,WNW,286,14.0,21.0,80,0.00,,,0.24,VWS V12.07,2013-02-13 22:40:00,
2013-02-13 17:59:00,38.6,32.7,29.66,West,273,11.0,17.0,79,0.00,,,0.24,VWS V12.07,2013-02-13 22:59:00,
2013-02-13 18:10:00,37.0,31.7,29.68,WNW,303,1.0,16.0,81,0.00,,,0.24,VWS V12.07,2013-02-13 23:10:00,
2013-02-13 18:29:00,36.0,31.0,29.71,WNW,302,13.0,19.0,82,0.00,,,0.24,VWS V12.07,2013-02-13 23:29:00,
2013-02-13 18:40:00,34.9,30.9,29.72,West,279,0.0,12.0,85,0.00,,,0.24,VWS V12.07,2013-02-13 23:40:00,
2013-02-13 18:59:00,34.3,30.6,29.75,WNW,288,0.0,11.0,86,0.00,,,0.24,VWS V12.07,2013-02-13 23:59:00,
2013-02-13 19:10:00,33.8,29.5,29.76,NW,319,3.0,9.0,84,0.00,,,0.24,VWS V12.07,2013-02-14 00:10:00,
2013-02-13 19:29:00,33.7,29.4,29.76,North,355,6.0,12.0,84,0.00,,,0.24,VWS V12.07,2013-02-14 00:29:00,
2013-02-13 19:40:00,33.1,28.8,29.78,West,265,5.0,13.0,84,0.00,,,0.24,VWS V12.07,2013-02-14 00:40:00,
2013-02-13 19:59:00,32.9,28.0,29.78,North,5,2.0,10.0,82,0.00,,,0.24,VWS V12.07,2013-02-14 00:59:00,
2013-02-13 20:10:00,32.7,27.5,29.79,WNW,288,3.0,19.0,81,0.00,,,0.24,VWS V12.07,2013-02-14 01:10:00,
2013-02-13 20:29:00,32.4,27.2,29.80,WNW,298,3.0,18.0,81,0.00,,,0.24,VWS V12.07,2013-02-14 01:29:00,
2013-02-13 20:40:00,31.8,26.9,29.80,West,277,7.0,22.0,82,0.00,,,0.24,VWS V12.07,2013-02-14 01:40:00,
2013-02-13 20:59:00,31.5,26.9,29.79,WNW,294,4.0,21.0,83,0.00,,,0.24,VWS V12.07,2013-02-14 01:59:00,
2013-02-13 21:10:00,31.0,26.2,29.79,NW,315,9.0,17.0,82,0.00,,,0.24,VWS V12.07,2013-02-14 02:10:00,
2013-02-13 21:29:00,31.0,25.9,29.80,West,274,15.0,27.0,81,0.00,,,0.24,VWS V12.07,2013-02-14 02:29:00,
2013-02-13 21:40:00,31.0,25.3,29.80,West,269,6.0,27.0,79,0.00,,,0.24,VWS V12.07,2013-02-14 02:40:00,
2013-02-13 21:59:00,31.2,25.1,29.80,WNW,298,16.0,27.0,78,0.00,,,0.24,VWS V12.07,2013-02-14 02:59:00,
2013-02-13 22:10:00,31.2,25.1,29.81,WNW,292,9.0,20.0,78,0.00,,,0.24,VWS V12.07,2013-02-14 03:10:00,
2013-02-13 22:29:00,31.2,25.5,29.81,NW,304,5.0,25.0,79,0.00,,,0.24,VWS V12.07,2013-02-14 03:29:00,
2013-02-13 22:40:00,31.0,25.9,29.81,West,273,4.0,20.0,81,0.00,,,0.24,VWS V12.07,2013-02-14 03:40:00,
2013-02-13 22:59:00,30.7,25.6,29.81,WNW,292,17.0,24.0,81,0.00,,,0.24,VWS V12.07,2013-02-14 03:59:00,
2013-02-13 23:10:00,30.4,25.9,29.81,WNW,282,5.0,21.0,83,0.00,,,0.24,VWS V12.07,2013-02-14 04:10:00,
2013-02-13 23:29:00,30.3,26.1,29.81,NNW,332,5.0,21.0,84,0.00,,,0.24,VWS V12.07,2013-02-14 04:29:00,
2013-02-13 23:40:00,30.0,25.8,29.82,North,360,7.0,20.0,84,0.00,,,0.24,VWS V12.07,2013-02-14 04:40:00,
2013-02-13 23:59:00,30.0,25.8,29.82,WNW,284,3.0,15.0,84,0.00,,,0.24,VWS V12.07,2013-02-14 04:59:00,